TimeEST,TemperatureF,Dew PointF,Humidity,Sea Level PressureIn,VisibilityMPH,Wind Direction,Wind SpeedMPH,Gust SpeedMPH,PrecipitationIn,Events,Conditions,WindDirDegrees,DateUTC
12:53 AM,14.0,6.1,71,29.98,9.0,SSW,18.4,26.5,0.00,,Overcast,210,2014-01-18 05:53:00
1:53 AM,12.9,5.0,71,29.98,9.0,SW,19.6,25.3,N/A,,Overcast,220,2014-01-18 06:53:00
2:53 AM,12.0,5.0,73,29.98,10.0,SW,17.3,24.2,N/A,,Overcast,220,2014-01-18 07:53:00
3:53 AM,12.0,5.0,73,29.98,10.0,SSW,16.1,21.9,N/A,,Overcast,210,2014-01-18 08:53:00
4:26 AM,12.2,5.0,73,29.95,10.0,SSW,11.5,-,0.00,,Overcast,210,2014-01-18 09:26:00
4:53 AM,12.0,5.0,73,29.98,10.0,SW,16.1,-,0.00,,Overcast,230,2014-01-18 09:53:00
5:08 AM,12.2,6.8,79,29.96,10.0,SW,16.1,-,N/A,,Overcast,220,2014-01-18 10:08:00
5:53 AM,12.0,6.1,77,29.99,10.0,SW,19.6,-,N/A,,Overcast,220,2014-01-18 10:53:00
6:53 AM,12.9,6.1,74,30.00,10.0,SW,16.1,-,N/A,,Overcast,230,2014-01-18 11:53:00
7:53 AM,12.9,7.0,77,30.00,10.0,SW,12.7,-,N/A,,Overcast,220,2014-01-18 12:53:00
8:53 AM,12.9,6.1,74,30.01,10.0,SW,11.5,-,N/A,,Clear,220,2014-01-18 13:53:00
9:53 AM,15.1,8.1,74,30.02,10.0,SSW,10.4,-,N/A,,Clear,210,2014-01-18 14:53:00
10:53 AM,16.0,8.1,71,30.03,10.0,SSW,12.7,-,N/A,,Partly Cloudy,210,2014-01-18 15:53:00
11:26 AM,17.6,8.6,68,29.99,10.0,SSW,12.7,-,N/A,,Mostly Cloudy,200,2014-01-18 16:26:00
11:53 AM,18.0,9.0,68,30.02,10.0,SW,16.1,-,N/A,,Overcast,220,2014-01-18 16:53:00
12:53 PM,19.0,9.0,65,29.99,10.0,SW,12.7,-,N/A,,Mostly Cloudy,220,2014-01-18 17:53:00
1:53 PM,19.0,9.0,65,29.97,10.0,SSW,13.8,-,N/A,,Mostly Cloudy,210,2014-01-18 18:53:00
2:00 PM,19.4,8.6,63,29.93,10.0,South,10.4,-,N/A,,Scattered Clouds,190,2014-01-18 19:00:00
2:12 PM,19.4,8.6,63,29.93,10.0,South,11.5,-,N/A,,Mostly Cloudy,190,2014-01-18 19:12:00
2:53 PM,19.9,9.0,62,29.97,10.0,SSW,10.4,-,N/A,,Mostly Cloudy,210,2014-01-18 19:53:00
3:00 PM,19.4,8.6,63,29.93,10.0,South,12.7,-,N/A,,Mostly Cloudy,190,2014-01-18 20:00:00
3:53 PM,19.9,9.0,62,29.96,10.0,SSW,11.5,-,N/A,,Mostly Cloudy,200,2014-01-18 20:53:00
4:53 PM,19.9,9.0,62,29.95,10.0,SSE,10.4,-,N/A,,Overcast,160,2014-01-18 21:53:00
5:53 PM,19.9,9.0,62,29.95,10.0,South,8.1,-,N/A,,Overcast,170,2014-01-18 22:53:00
6:53 PM,19.9,10.0,65,29.95,10.0,South,9.2,-,N/A,,Clear,180,2014-01-18 23:53:00
7:53 PM,19.9,10.9,68,29.93,10.0,South,11.5,-,N/A,,Scattered Clouds,190,2014-01-19 00:53:00
8:53 PM,19.9,10.9,68,29.92,10.0,South,8.1,-,N/A,,Overcast,180,2014-01-19 01:53:00
9:53 PM,19.9,14.0,78,29.91,3.0,South,5.8,-,0.00,Snow,Light Snow,180,2014-01-19 02:53:00
9:55 PM,19.4,14.0,80,29.88,2.5,South,9.2,-,0.00,Snow,Light Snow,170,2014-01-19 02:55:00
10:02 PM,19.4,14.0,80,29.88,3.0,South,6.9,-,0.00,Snow,Light Snow,170,2014-01-19 03:02:00
10:53 PM,19.0,15.1,85,29.88,3.0,SSE,8.1,-,0.00,Snow,Light Snow,160,2014-01-19 03:53:00
11:24 PM,19.4,15.8,86,29.83,5.0,SSE,8.1,-,0.00,Snow,Light Snow,150,2014-01-19 04:24:00
11:53 PM,19.0,15.1,85,29.84,5.0,SSE,8.1,-,0.00,Snow,Light Snow,150,2014-01-19 04:53:00